Probability
0 0 1 1 1 1 2 1 0 0 0 0 0 1 2 2 3 3 2 1 1 2 2 2 2 1 2 3 3 1 0 0 0 0 0 0 0 0 0 0 0 0 0
0 0 0 1 1 2 2 1 0 0 0 0 0 0 1 1 2 2 1 0 0 1 1 2 2 2 2 1 1 0 0 0 0 1 1 0 0 0 0 0 0 0 0
0 0 0 0 2 2 1 0 0 0 0 0 0 0 0 0 1 1 0 0 0 0 0 1 2 2 2 1 0 0 0 0 0 1 1 0 0 0 0 0 0 0 0
0 0 0 0 1 1 1 0 0 0 0 0 0 0 0 0 0 0 0 0 0 0 0 0 1 1 2 1 0 0 0 0 0 1 1 0 0 0 0 0 0 0 0
0 0 0 0 0 1 1 1 1 1 1 0 0 0 0 0 0 0 0 0 0 0 0 0 0 0 1 1 0 0 0 0 0 0 0 0 0 0 0 0 0 0 0
0 0 0 0 0 1 1 1 2 3 2 1 0 0 0 0 0 0 0 0 0 0 0 0 0 0 0 0 0 0 0 0 0 0 0 0 0 0 0 0 0 0 0
0 0 0 0 1 1 2 2 3 3 2 1 0 0 0 0 0 0 0 0 0 0 0 0 0 0 0 0 0 0 0 0 0 0 0 0 0 0 0 0 0 0 0
0 0 0 0 1 2 3 3 3 3 2 0 0 0 0 0 0 0 0 0 0 0 0 0 0 0 0 0 0 0 0 0 0 0 0 0 0 0 0 0 0 0 0
0 0 0 0 1 1 2 3 3 3 2 1 0 0 0 0 0 0 0 0 1 1 0 0 0 0 0 0 0 0 0 0 0 0 0 0 0 0 0 0 0 0 0
0 0 0 0 0 1 1 1 1 2 3 2 1 0 0 0 0 0 0 1 2 2 1 0 0 0 0 0 0 0 0 0 0 0 0 0 0 0 0 0 0 0 0
1 0 0 0 0 0 1 1 1 1 2 2 1 0 0 0 0 0 0 1 2 3 2 2 2 1 1 1 0 0 0 0 0 0 0 0 0 0 0 0 0 0 0
2 1 1 2 1 1 1 2 2 1 1 1 0 0 0 0 0 0 0 1 2 3 3 3 3 3 2 2 1 0 0 0 0 0 0 0 0 0 0 0 0 0 0
2 2 3 3 3 2 3 3 3 1 1 1 0 0 0 0 0 0 0 0 1 2 3 3 3 3 3 3 2 1 0 0 0 0 0 0 0 0 0 0 0 0 0
2 3 3 3 3 3 3 3 3 3 2 2 1 1 1 0 0 0 0 0 0 1 2 3 3 3 3 3 2 1 0 0 0 0 0 0 0 0 0 0 0 0 0
3 3 3 3 3 3 3 3 4 3 3 3 3 2 2 1 0 0 0 0 0 0 1 1 2 2 2 2 1 0 0 0 0 0 0 0 0 0 0 0 0 0 0
3 3 3 3 3 3 3 4 4 4 3 3 3 3 3 1 0 0 0 0 0 0 0 0 1 1 1 1 0 0 0 0 0 0 0 0 0 0 0 0 0 0 0
3 3 3 3 3 3 3 3 4 3 3 3 3 3 3 2 1 0 0 0 0 0 0 0 0 0 0 0 0 1 1 1 0 0 0 0 0 0 0 0 0 0 0
3 3 3 3 3 3 3 3 3 3 3 3 3 3 3 3 2 1 1 0 0 0 0 0 0 0 0 0 0 1 2 1 1 0 0 0 0 0 0 0 0 0 0
1 2 3 3 3 3 3 3 3 3 3 3 3 3 3 3 3 3 2 1 0 0 0 0 0 0 0 0 0 1 1 1 1 0 0 0 0 0 0 0 0 0 0
0 1 2 3 3 3 3 3 3 3 3 3 3 3 3 3 3 3 2 1 0 0 0 0 0 0 0 0 0 0 0 0 0 0 0 0 0 0 0 0 0 0 0
0 0 1 2 3 3 3 3 3 3 3 3 3 3 3 3 2 1 1 0 0 0 0 0 0 0 0 0 0 0 0 0 0 0 0 0 0 0 0 0 0 0 0
0 0 0 1 3 3 1 1 2 3 3 3 3 3 3 1 1 0 0 0 0 0 0 0 0 0 0 0 0 0 0 0 0 0 0 0 0 0 0 0 0 0 0
0 1 1 1 2 2 1 0 1 2 3 3 3 3 3 1 0 0 0 0 0 0 0 0 0 0 0 0 0 0 0 0 0 0 0 0 0 0 0 0 0 0 0
1 1 2 1 2 2 1 0 0 2 3 3 3 3 3 2 1 0 0 0 0 0 0 0 0 0 0 0 0 0 0 0 0 0 0 0 0 0 0 0 0 0 0
1 2 2 1 2 2 1 0 1 2 3 3 3 3 3 2 1 0 0 0 0 0 0 0 0 0 0 0 0 0 0 0 0 0 0 0 0 0 0 0 0 0 0
2 2 2 1 1 1 0 0 1 2 3 3 3 3 2 1 0 0 0 0 0 0 0 0 0 0 0 0 0 0 0 0 0 0 0 0 0 0 0 0 0 0 0
Wind_Speed
3 3 3 3 3 3 4 4 5 6 6 6 6 7 7 7 7 6 6 11 12 11 11 11 11 10 10 10 10 9 10 10 10 10 10 10 10 10 9 9 9 9 9
3 3 4 4 4 3 4 4 6 5 5 5 6 7 7 6 7 7 6 8 12 12 11 11 11 11 10 10 10 10 10 10 11 10 10 10 10 10 10 10 10 9 9
3 3 3 4 4 4 4 4 6 5 5 5 6 7 6 6 6 6 6 4 6 10 11 11 11 11 11 10 10 10 10 10 11 11 11 10 10 10 10 10 10 9 9
4 4 3 4 4 4 4 4 4 4 5 5 5 5 4 4 6 5 5 5 4 4 8 11 10 10 10 11 11 10 10 10 10 10 10 11 10 10 10 10 10 9 9
3 4 3 3 4 3 3 4 4 4 5 5 4 4 4 4 4 4 5 6 5 4 5 7 9 10 10 10 10 10 10 10 9 10 10 10 10 10 10 10 10 9 9
3 4 3 4 4 4 3 4 5 4 4 3 4 4 3 3 3 4 4 5 5 6 6 5 4 7 9 10 10 10 10 9 9 9 9 10 10 10 10 10 10 10 9
3 3 3 4 3 4 4 4 4 5 4 3 3 3 3 4 4 3 3 3 4 5 5 5 4 4 4 8 9 9 9 9 8 9 9 9 10 10 10 9 9 9 9
3 3 3 3 4 3 4 4 3 2 2 1 0 1 2 3 2 3 2 2 3 4 4 5 5 4 4 4 7 9 9 8 8 8 8 8 9 9 9 9 9 9 9
3 3 3 3 3 3 3 3 2 1 2 1 1 1 1 1 2 2 3 2 3 3 3 3 4 4 4 4 4 7 8 7 7 7 7 7 8 8 8 8 8 8 8
3 2 3 3 3 2 2 2 2 1 1 1 1 1 2 1 1 1 2 2 3 3 2 2 3 3 4 4 5 8 8 8 7 6 6 6 7 7 7 7 8 8 9
2 2 2 2 2 2 1 1 1 1 1 1 0 0 1 1 1 1 1 1 2 2 2 2 2 2 3 3 3 7 7 7 7 7 6 6 6 6 6 7 7 7 8
2 3 2 2 2 1 1 1 1 1 0 0 1 0 0 0 0 0 0 1 1 2 2 2 2 2 2 3 5 7 6 7 7 7 7 6 6 6 6 6 6 7 7
2 2 2 2 2 2 1 1 1 1 1 1 0 0 0 1 1 0 0 1 1 1 2 2 2 2 2 2 4 4 6 6 6 6 7 6 6 6 6 6 6 6 7
2 2 2 2 2 2 2 1 1 1 1 1 1 1 0 0 0 0 0 0 1 2 2 2 2 2 2 2 4 0 5 6 5 5 6 6 6 6 6 6 6 6 6
2 2 3 2 2 1 1 1 1 1 1 1 1 1 1 1 0 0 0 1 1 0 2 2 2 2 2 2 2 1 3 7 5 5 5 5 5 6 6 6 5 5 5
2 3 3 3 2 2 2 1 1 1 2 2 1 1 1 1 1 1 0 0 1 1 1 2 1 2 2 2 3 2 3 6 5 4 4 4 4 4 5 5 5 5 5
3 3 2 2 2 2 2 2 2 2 2 2 2 2 2 2 1 1 1 0 1 1 1 2 2 2 2 1 2 1 1 1 3 5 3 3 3 4 4 4 5 5 5
3 3 2 2 2 2 2 3 3 2 2 2 2 2 3 2 2 1 1 1 1 1 0 1 2 1 1 1 1 1 1 1 1 5 3 3 3 3 3 3 4 4 4
3 3 3 3 3 3 3 3 3 2 2 2 2 2 2 3 3 2 1 1 1 1 0 1 2 1 1 1 0 0 0 0 0 2 2 2 1 1 2 2 3 3 3
3 3 3 3 3 3 3 3 3 2 2 2 2 2 2 2 2 2 1 1 1 1 1 1 1 1 1 0 1 1 1 0 1 1 0 0 2 2 1 1 1 2 2
4 3 3 3 3 2 2 2 3 3 3 2 2 2 2 3 3 2 1 1 1 1 1 1 1 1 1 1 1 1 2 2 1 1 2 1 1 2 2 3 2 1 1
4 4 4 4 3 2 3 1 2 3 3 3 3 3 3 4 4 3 2 1 1 1 1 2 2 2 2 2 1 2 2 2 2 0 2 2 1 2 2 1 2 1 1
4 4 4 4 4 4 5 4 3 3 3 3 3 3 2 2 3 3 4 5 3 1 2 3 3 2 2 1 2 3 3 3 3 1 2 3 2 2 2 0 2 1 2
4 3 4 4 3 3 5 5 4 5 3 3 3 3 3 3 2 1 2 3 2 2 2 3 3 2 2 2 2 3 4 3 3 1 2 3 2 3 2 1 2 2 3
3 3 3 4 4 4 5 5 5 3 3 3 3 2 2 2 3 1 3 3 3 2 2 1 3 3 3 2 2 2 2 3 3 2 1 3 3 3 3 3 2 3 4
3 3 3 3 3 3 5 5 6 4 4 3 3 3 2 1 3 3 4 3 3 2 2 2 2 2 2 2 3 4 3 3 3 3 1 2 3 3 3 2 2 2 3
Wind_Direction
77 77 80 75 72 80 88 79 80 78 74 70 69 70 69 68 70 70 75 67 63 65 68 70 69 68 72 70 68 68 68 68 68 67 67 67 66 64 63 63 62 56 51
75 81 79 76 74 75 77 83 84 83 76 74 74 72 67 69 70 76 77 78 68 62 64 66 65 66 70 71 70 70 69 68 67 67 67 65 64 61 59 60 58 53 49
81 86 80 82 86 92 94 84 84 84 86 87 81 74 69 63 67 68 68 67 77 72 63 61 61 63 66 70 71 69 68 67 66 65 65 64 63 62 59 57 57 53 48
77 81 82 85 88 93 91 88 86 91 91 86 82 76 73 71 70 69 72 71 66 70 75 61 56 58 59 64 66 67 68 66 65 66 65 64 62 61 59 57 56 52 49
82 94 86 87 95 91 89 91 86 87 92 91 91 82 70 67 66 67 68 66 70 68 72 77 67 59 57 59 60 63 66 67 66 68 67 64 62 60 59 56 54 51 49
83 98 104 96 93 93 94 98 99 91 87 94 93 84 78 78 71 59 60 63 59 63 62 65 76 76 65 56 55 58 61 64 66 68 68 65 62 59 57 55 53 52 50
89 96 101 97 98 101 102 103 104 107 103 107 114 105 96 84 71 70 61 63 70 64 67 68 61 62 80 73 55 54 57 61 65 68 68 65 62 59 54 50 49 51 50
95 103 111 118 118 112 115 107 108 112 114 138 94 131 132 127 91 71 73 68 71 74 58 59 66 66 55 66 67 52 45 58 70 71 69 64 62 57 51 47 47 49 49
96 102 116 126 125 126 121 119 133 149 142 134 352 324 331 71 104 103 74 79 74 67 65 56 59 61 66 64 72 64 42 49 67 70 67 63 60 56 50 47 48 47 48
105 111 128 141 139 136 136 134 135 181 204 160 133 1 355 22 310 124 119 84 76 69 64 66 62 60 61 66 65 57 47 46 55 61 65 62 59 57 51 48 48 48 47
110 119 126 138 139 147 152 136 161 220 236 280 325 115 98 103 288 314 98 99 106 92 72 63 65 59 61 65 64 63 52 47 48 49 56 56 53 52 48 46 46 47 46
124 125 133 142 139 140 143 147 152 169 246 353 308 307 244 302 352 9 177 137 96 89 85 77 71 72 68 73 69 63 60 53 51 50 50 48 44 41 41 47 45 43 44
135 133 151 151 137 129 131 146 155 152 144 138 43 351 348 343 319 281 197 101 109 120 104 96 84 82 80 76 84 79 81 62 56 55 51 49 43 36 38 42 39 39 41
132 131 147 144 134 142 148 144 165 140 135 131 111 105 129 59 322 320 338 172 173 140 115 86 88 77 73 74 65 64 91 79 62 57 54 53 46 40 37 34 31 33 36
149 152 154 150 141 143 158 166 160 137 129 121 109 117 111 100 104 71 293 270 293 245 108 96 92 85 78 68 57 78 82 87 76 64 61 55 46 40 37 32 29 33 34
163 177 170 166 157 149 159 159 163 144 159 122 96 100 100 102 97 114 166 292 321 321 72 92 94 100 85 84 67 45 72 99 88 75 64 57 49 42 36 29 29 33 29
172 180 183 179 164 167 167 161 174 162 166 143 133 125 120 100 110 116 129 128 25 6 106 100 107 102 110 96 100 66 95 112 101 99 77 57 49 44 36 38 42 39 31
177 178 172 171 161 176 180 164 161 167 159 145 134 134 131 125 120 105 117 120 83 12 124 127 134 122 107 70 48 24 41 49 75 100 94 67 51 46 40 42 43 39 29
182 182 181 182 172 176 177 171 169 165 150 143 145 138 128 132 134 122 140 131 118 101 86 161 127 109 136 72 33 2 326 4 354 118 140 136 96 53 51 48 42 35 30
190 190 187 186 186 185 186 185 172 171 164 150 143 135 135 143 139 143 153 146 137 136 138 152 147 155 155 160 263 297 298 281 282 310 344 140 155 181 179 134 44 30 27
197 195 193 192 191 194 188 190 182 181 174 167 155 149 118 85 55 43 28 156 160 173 173 182 188 201 195 204 250 271 284 286 269 300 288 261 230 232 200 191 203 245 325
198 193 200 199 193 175 121 152 229 184 180 182 178 167 148 158 144 146 108 45 6 232 219 212 228 239 248 240 257 262 269 276 283 331 289 282 278 281 275 274 92 145 251
191 196 198 196 196 158 144 167 212 223 193 190 192 177 163 160 195 185 168 177 185 231 281 278 269 274 269 263 255 261 269 281 291 323 287 280 274 277 283 56 112 205 274
185 194 196 198 194 160 154 173 194 222 205 193 200 200 188 187 173 222 199 197 196 190 221 245 274 295 312 307 273 275 282 280 269 255 278 281 285 288 285 261 159 223 262
187 192 193 196 193 172 158 179 201 206 207 202 199 203 207 205 116 182 231 224 217 196 133 57 3 15 33 13 317 263 256 254 266 255 242 278 292 292 280 267 206 209 246
190 189 186 197 193 187 153 176 212 210 209 206 200 186 150 228 130 189 231 231 233 226 207 189 196 200 216 196 230 247 253 265 277 274 250 275 285 294 279 266 277 242 238